TimeEST,TemperatureF,Dew PointF,Humidity,Sea Level PressureIn,VisibilityMPH,Wind Direction,Wind SpeedMPH,Gust SpeedMPH,PrecipitationIn,Events,Conditions,WindDirDegrees,DateUTC
12:54 AM,34.0,23.0,64,29.60,10.0,NW,8.1,19.6,N/A,,Mostly Cloudy,310,2013-03-04 05:54:00
1:54 AM,34.0,23.0,64,29.61,10.0,NW,11.5,18.4,N/A,,Overcast,310,2013-03-04 06:54:00
2:54 AM,34.0,23.0,64,29.61,10.0,West,8.1,-,N/A,,Overcast,280,2013-03-04 07:54:00
3:54 AM,32.0,21.9,66,29.61,10.0,WNW,5.8,-,N/A,,Mostly Cloudy,290,2013-03-04 08:54:00
4:54 AM,30.9,21.9,69,29.62,10.0,West,5.8,-,N/A,,Clear,270,2013-03-04 09:54:00
5:54 AM,30.9,21.0,67,29.62,10.0,WNW,12.7,19.6,N/A,,Clear,290,2013-03-04 10:54:00
6:54 AM,32.0,21.0,64,29.63,10.0,West,12.7,19.6,N/A,,Clear,280,2013-03-04 11:54:00
7:50 AM,32.0,19.4,60,29.63,10.0,WNW,11.5,21.9,N/A,,Mostly Cloudy,300,2013-03-04 12:50:00
7:54 AM,33.1,21.0,61,29.64,10.0,WNW,10.4,18.4,N/A,,Mostly Cloudy,290,2013-03-04 12:54:00
8:02 AM,32.0,19.4,60,29.63,10.0,WNW,13.8,23.0,N/A,,Scattered Clouds,290,2013-03-04 13:02:00
8:54 AM,33.1,19.9,59,29.62,10.0,NW,15.0,21.9,N/A,,Scattered Clouds,310,2013-03-04 13:54:00
9:54 AM,35.1,19.9,54,29.62,10.0,WNW,15.0,23.0,N/A,,Scattered Clouds,300,2013-03-04 14:54:00
10:54 AM,36.0,19.9,52,29.61,10.0,WNW,9.2,21.9,N/A,,Partly Cloudy,300,2013-03-04 15:54:00
11:54 AM,37.9,21.0,51,29.61,10.0,NW,12.7,20.7,N/A,,Overcast,320,2013-03-04 16:54:00
12:54 PM,39.0,21.9,50,29.59,10.0,WNW,15.0,25.3,N/A,,Overcast,290,2013-03-04 17:54:00
1:54 PM,39.0,23.0,53,29.59,10.0,WNW,16.1,23.0,N/A,,Overcast,290,2013-03-04 18:54:00
2:54 PM,37.0,24.1,59,29.60,10.0,WNW,17.3,25.3,0.00,Snow,Light Snow,290,2013-03-04 19:54:00
3:54 PM,37.9,23.0,55,29.61,10.0,WNW,12.7,26.5,0.00,,Overcast,290,2013-03-04 20:54:00
4:54 PM,36.0,25.0,64,29.63,10.0,WNW,13.8,20.7,N/A,,Overcast,300,2013-03-04 21:54:00
5:29 PM,35.6,24.8,65,29.64,10.0,WNW,16.1,24.2,0.00,Snow,Light Snow,300,2013-03-04 22:29:00
5:54 PM,34.0,26.1,73,29.66,4.0,NW,10.4,19.6,0.00,Snow,Light Snow,310,2013-03-04 22:54:00
6:06 PM,33.8,26.6,75,29.66,3.0,WNW,12.7,21.9,0.00,Snow,Light Snow,300,2013-03-04 23:06:00
6:17 PM,33.8,26.6,75,29.67,2.5,NW,10.4,17.3,0.00,Snow,Light Snow,310,2013-03-04 23:17:00
6:41 PM,33.8,26.6,75,29.67,5.0,NW,13.8,21.9,0.00,Snow,Light Snow,310,2013-03-04 23:41:00
6:54 PM,33.1,26.1,75,29.68,9.0,NW,11.5,21.9,0.00,,Overcast,310,2013-03-04 23:54:00
7:54 PM,33.1,24.1,70,29.70,10.0,NW,13.8,24.2,0.00,,Overcast,310,2013-03-05 00:54:00
8:54 PM,33.1,21.9,64,29.72,10.0,NNW,13.8,21.9,N/A,,Overcast,330,2013-03-05 01:54:00
9:54 PM,32.0,21.0,64,29.73,10.0,NW,13.8,18.4,N/A,,Overcast,310,2013-03-05 02:54:00
10:54 PM,32.0,21.0,64,29.75,10.0,Variable,6.9,-,N/A,,Mostly Cloudy,0,2013-03-05 03:54:00
11:54 PM,32.0,21.0,64,29.75,10.0,NNW,9.2,-,N/A,,Overcast,330,2013-03-05 04:54:00